| time (UTC) | temp C | wind direction | speed KPH | gust KPH | rain 1hr cm | rain 24hr cm | rain mn cm | humidity % | barometer mb |
| 20260507050032 | 6 | 286 | 0.0 | 3.2 | 0.00 | 1.07 | 0.00 | 95 | 1011.3 |
| 20260507044509 | 6 | 194 | 0.0 | 1.6 | 0.00 | 1.07 | 0.00 | 94 | 1011.3 |
| 20260507043009 | 6 | 228 | 0.0 | 0.0 | 0.00 | 1.07 | 0.00 | 94 | 1011.3 |
| 20260507041508 | 6 | 223 | 0.0 | 1.6 | 0.00 | 1.07 | 0.00 | 94 | 1011.0 |
| 20260507040013 | 6 | 352 | 0.0 | 1.6 | 0.00 | 1.07 | 0.00 | 94 | 1011.1 |
| 20260507034511 | 5 | 352 | 0.0 | 0.0 | 0.00 | 1.07 | 1.07 | 94 | 1010.9 |
| 20260507033010 | 5 | 352 | 0.0 | 1.6 | 0.00 | 1.07 | 1.07 | 94 | 1010.8 |
| 20260507031510 | 5 | 256 | 0.0 | 1.6 | 0.00 | 1.07 | 1.07 | 94 | 1011.2 |
| 20260507030014 | 5 | 256 | 0.0 | 1.6 | 0.00 | 1.07 | 1.07 | 94 | 1011.2 |
| 20260507024512 | 5 | 261 | 0.0 | 1.6 | 0.00 | 1.07 | 1.07 | 94 | 1011.4 |
| 20260507023012 | 6 | 261 | 0.0 | 1.6 | 0.00 | 1.07 | 1.07 | 94 | 1011.1 |
| 20260507021514 | 6 | 261 | 0.0 | 0.0 | 0.00 | 1.07 | 1.07 | 94 | 1011.7 |
| 20260507020012 | 6 | 261 | 0.0 | 0.0 | 0.00 | 1.07 | 1.07 | 94 | 1011.3 |
| 20260507014520 | 6 | 261 | 0.0 | 0.0 | 0.00 | 1.07 | 1.07 | 93 | 1011.5 |
| 20260507013015 | 6 | 261 | 0.0 | 0.0 | 0.00 | 1.07 | 1.07 | 93 | 1011.4 |
| 20260507011516 | 6 | 261 | 0.0 | 0.0 | 0.00 | 1.07 | 1.07 | 93 | 1011.6 |
| 20260507010028 | 6 | 261 | 0.0 | 0.0 | 0.00 | 1.07 | 1.07 | 93 | 1011.4 |
| 20260507004514 | 6 | 261 | 0.0 | 1.6 | 0.00 | 1.07 | 1.07 | 93 | 1011.3 |
| 20260507003019 | 6 | 261 | 0.0 | 3.2 | 0.00 | 1.07 | 1.07 | 93 | 1011.1 |
| 20260507001519 | 6 | 273 | 0.0 | 1.6 | 0.00 | 1.07 | 1.07 | 93 | 1011.0 |
| 20260507000018 | 6 | 273 | 0.0 | 1.6 | 0.00 | 1.07 | 1.07 | 93 | 1011.0 |
| 20260506234535 | 6 | 273 | 0.0 | 0.0 | 0.00 | 1.07 | 1.07 | 93 | 1010.7 |
| 20260506233019 | 6 | 276 | 0.0 | 1.6 | 0.00 | 1.07 | 1.07 | 93 | 1010.5 |
| 20260506231522 | 6 | 314 | 0.0 | 3.2 | 0.00 | 1.07 | 1.07 | 93 | 1010.5 |
| 20260506230024 | 6 | 21 | 0.0 | 1.6 | 0.00 | 1.07 | 1.07 | 93 | 1010.3 |
| 20260506224527 | 6 | 360 | 0.0 | 4.8 | 0.00 | 1.07 | 1.07 | 93 | 1010.3 |
| 20260506223023 | 6 | 203 | 0.0 | 9.7 | 0.00 | 1.07 | 1.07 | 93 | 1010.0 |
| 20260506221520 | 6 | 352 | 3.2 | 11.3 | 0.00 | 1.09 | 1.07 | 93 | 1009.9 |
| 20260506220033 | 7 | 300 | 3.2 | 6.4 | 0.00 | 1.09 | 1.07 | 93 | 1009.6 |
| 20260506214521 | 7 | 289 | 3.2 | 9.7 | 0.00 | 1.09 | 1.07 | 93 | 1009.7 |
| 20260506213022 | 7 | 288 | 3.2 | 14.5 | 0.00 | 1.09 | 1.07 | 93 | 1009.6 |
| 20260506211524 | 7 | 12 | 0.0 | 6.4 | 0.03 | 1.09 | 1.07 | 94 | 1009.2 |
| 20260506210022 | 7 | 344 | 0.0 | 6.4 | 0.03 | 1.09 | 1.07 | 94 | 1009.0 |
| 20260506204526 | 7 | 11 | 0.0 | 14.5 | 0.05 | 1.09 | 1.07 | 94 | 1008.7 |
| 20260506203026 | 7 | 300 | 1.6 | 12.9 | 0.08 | 1.09 | 1.07 | 94 | 1008.5 |
| 20260506201522 | 7 | 321 | 1.6 | 6.4 | 0.08 | 1.07 | 1.04 | 94 | 1008.0 |
| 20260506200026 | 8 | 9 | 0.0 | 12.9 | 0.08 | 1.07 | 1.04 | 94 | 1008.1 |
| 20260506194531 | 8 | 61 | 1.6 | 9.7 | 0.05 | 1.07 | 1.02 | 94 | 1007.9 |
| 20260506193008 | 8 | 324 | 0.0 | 16.1 | 0.03 | 1.04 | 0.99 | 94 | 1008.0 |
| 20260506191513 | 8 | 271 | 1.6 | 6.4 | 0.00 | 1.02 | 0.97 | 94 | 1007.7 |
| 20260506190015 | 8 | 42 | 0.0 | 11.3 | 0.00 | 1.02 | 0.97 | 94 | 1007.6 |
| 20260506184524 | 8 | 11 | 0.0 | 8.0 | 0.00 | 1.02 | 0.97 | 94 | 1007.4 |
| 20260506183019 | 8 | 337 | 1.6 | 8.0 | 0.00 | 1.02 | 0.97 | 94 | 1007.3 |
| 20260506181507 | 8 | 340 | 0.0 | 6.4 | 0.03 | 1.02 | 0.97 | 93 | 1007.1 |
| 20260506180015 | 10 | 360 | 1.6 | 8.0 | 0.03 | 1.02 | 0.97 | 93 | 1006.8 |
| 20260506174516 | 11 | 299 | 0.0 | 4.8 | 0.05 | 1.02 | 0.97 | 93 | 1006.5 |
| 20260506173024 | 12 | 283 | 0.0 | 12.9 | 0.05 | 1.02 | 0.97 | 94 | 1006.4 |
| 20260506171525 | 13 | 257 | 0.0 | 4.8 | 0.03 | 0.99 | 0.94 | 94 | 1006.3 |
| 20260506170009 | 13 | 193 | 0.0 | 3.2 | 0.05 | 0.99 | 0.94 | 94 | 1006.4 |
| 20260506164517 | 13 | 98 | 0.0 | 3.2 | 0.03 | 0.97 | 0.91 | 94 | 1006.5 |
| 20260506163022 | 13 | 265 | 0.0 | 3.2 | 0.05 | 0.97 | 0.91 | 94 | 1006.4 |
| 20260506161506 | 12 | 115 | 0.0 | 4.8 | 0.08 | 0.97 | 0.91 | 94 | 1006.3 |
| 20260506160007 | 12 | 81 | 0.0 | 3.2 | 0.10 | 0.94 | 0.89 | 94 | 1006.6 |
| 20260506154517 | 12 | 173 | 0.0 | 1.6 | 0.13 | 0.94 | 0.89 | 94 | 1006.6 |
| 20260506153019 | 12 | 168 | 0.0 | 4.8 | 0.15 | 0.91 | 0.86 | 94 | 1006.6 |
| 20260506151524 | 12 | 200 | 1.6 | 6.4 | 0.15 | 0.89 | 0.84 | 94 | 1006.8 |
| 20260506150006 | 12 | 157 | 0.0 | 4.8 | 0.13 | 0.84 | 0.79 | 94 | 1006.6 |
| 20260506144512 | 12 | 125 | 0.0 | 3.2 | 0.15 | 0.81 | 0.76 | 94 | 1006.4 |
| 20260506143015 | 12 | 132 | 0.0 | 4.8 | 0.15 | 0.76 | 0.71 | 94 | 1006.5 |
| 20260506141520 | 12 | 144 | 0.0 | 1.6 | 0.20 | 0.74 | 0.69 | 94 | 1006.6 |
| 20260506140024 | 12 | 134 | 0.0 | 1.6 | 0.25 | 0.71 | 0.66 | 94 | 1006.7 |
| 20260506134505 | 12 | 189 | 0.0 | 0.0 | 0.33 | 0.66 | 0.61 | 94 | 1006.9 |
| 20260506133015 | 12 | 207 | 0.0 | 3.2 | 0.33 | 0.61 | 0.56 | 94 | 1007.2 |
| 20260506131537 | 12 | 134 | 0.0 | 1.6 | 0.30 | 0.53 | 0.48 | 94 | 1007.4 |
| 20260506130033 | 12 | 188 | 0.0 | 4.8 | 0.25 | 0.46 | 0.41 | 94 | 1007.6 |
| 20260506124523 | 12 | 163 | 0.0 | 3.2 | 0.15 | 0.33 | 0.28 | 94 | 1007.6 |
| 20260506123010 | 11 | 142 | 1.6 | 6.4 | 0.10 | 0.28 | 0.23 | 94 | 1007.2 |
| 20260506121515 | 11 | 74 | 0.0 | 1.6 | 0.08 | 0.23 | 0.18 | 94 | 1007.1 |
| 20260506120021 | 11 | 348 | 0.0 | 1.6 | 0.05 | 0.20 | 0.15 | 94 | 1007.0 |
| 20260506114523 | 11 | 20 | 0.0 | 0.0 | 0.03 | 0.18 | 0.13 | 94 | 1007.5 |
| 20260506113024 | 10 | 20 | 0.0 | 0.0 | 0.05 | 0.20 | 0.13 | 94 | 1007.5 |
| 20260506111526 | 10 | 20 | 0.0 | 0.0 | 0.05 | 0.18 | 0.10 | 94 | 1007.6 |
| 20260506110017 | 10 | 20 | 0.0 | 1.6 | 0.05 | 0.18 | 0.10 | 93 | 1007.5 |
| 20260506104519 | 10 | 20 | 0.0 | 0.0 | 0.05 | 0.18 | 0.10 | 93 | 1007.6 |
| 20260506103032 | 10 | 20 | 0.0 | 0.0 | 0.03 | 0.15 | 0.08 | 93 | 1007.6 |
| 20260506101528 | 10 | 20 | 0.0 | 0.0 | 0.00 | 0.13 | 0.05 | 93 | 1007.2 |
| 20260506100034 | 10 | 20 | 0.0 | 0.0 | 0.03 | 0.13 | 0.05 | 92 | 1007.0 |
| 20260506094526 | 10 | 20 | 0.0 | 0.0 | 0.03 | 0.13 | 0.05 | 92 | 1007.0 |
| 20260506093023 | 10 | 20 | 0.0 | 0.0 | 0.05 | 0.13 | 0.05 | 91 | 1007.1 |
| 20260506091528 | 10 | 44 | 0.0 | 1.6 | 0.05 | 0.13 | 0.05 | 91 | 1007.3 |
| 20260506090027 | 10 | 52 | 0.0 | 0.0 | 0.03 | 0.10 | 0.03 | 89 | 1007.5 |
| 20260506084530 | 10 | 52 | 0.0 | 0.0 | 0.03 | 0.10 | 0.03 | 88 | 1007.7 |
| 20260506083022 | 10 | 55 | 0.0 | 1.6 | 0.00 | 0.08 | 0.00 | 87 | 1007.7 |
| 20260506081530 | 10 | 5 | 0.0 | 0.0 | 0.00 | 0.08 | 0.00 | 87 | 1007.7 |
| 20260506073018 | 10 | 321 | 0.0 | 3.2 | 0.00 | 0.08 | 0.00 | 86 | 1007.7 |
| 20260506071524 | 10 | 346 | 0.0 | 1.6 | 0.00 | 0.08 | 0.00 | 87 | 1007.7 |
| 20260506061522 | 10 | 26 | 0.0 | 4.8 | 0.00 | 0.08 | 0.00 | 86 | 1008.2 |